Location: Biltmore Gardens
(41.6070°N, 83.4666°W)
Time: 14:22:41
(UTC+00:00)

ATLAS 3B R/B - Pass Details

Date: 14 July 2020
Orbit: 1021 x 1174 km, 63.8° (Epoch: 02 August)

Event Time Altitude Azimuth Distance (km) Brightness Sun altitude
Rises 09:16:01 0° 175° (S) 3,772 5.2 -9.4°
Reaches altitude 10° 09:19:06 10° 162° (SSE) 2,811 4.7 -9.0°
Maximum altitude 09:24:16 25° 110° (ESE) 1,928 4.5 -8.3°
Drops below altitude 10° 09:29:27 10° 58° (ENE) 2,816 6.7 -7.5°
Sets 09:32:31 0° 46° (NE) 3,779 8.0 -7.0°
